This is the latest recevied weather packets stored in our database for station/object N8ESC. If no packets are shown the sender has not sent any weather packets the latest 1 day(s).
| Time | Temp. | Humidity | Pressure | Rain* | Wind** | Luminosity | Snow |
|---|---|---|---|---|---|---|---|
| 1836274814 | 17.22° C | 87% | 1019.7 hPa | 0 mm | 0.89 m/s, 77° | 0 W/m² | - |
| 1836274512 | 17.22° C | 87% | 1019.5 hPa | 0 mm | 0.89 m/s, 48° | 0 W/m² | - |
| 1836274365 | 17.22° C | 87% | 1019.7 hPa | 0 mm | 0 m/s | 0 W/m² | - |
| 1836274210 | 17.22° C | 87% | 1019.6 hPa | 0 mm | 1.79 m/s, 60° | 0 W/m² | - |
| 1836273910 | 17.22° C | 87% | 1019.6 hPa | 0 mm | 0.45 m/s, 46° | 0 W/m² | - |
| 1778047671 | 3.89° C | 51% | 1009.8 hPa | 0 mm | 0.89 m/s, 331° | 0 W/m² | - |
| 1778047369 | 3.89° C | 50% | 1009.7 hPa | 0 mm | 0.45 m/s, 36° | 0 W/m² | - |
| 1778047065 | 3.89° C | 51% | 1009.7 hPa | 0 mm | 0.89 m/s, 325° | 0 W/m² | - |
| 1778046762 | 3.89° C | 51% | 1009.8 hPa | 0 mm | 0.89 m/s, 34° | 0 W/m² | - |
| 1778046459 | 3.89° C | 50% | 1009.8 hPa | 0 mm | 0.45 m/s, 355° | 0 W/m² | - |
| 1778046155 | 3.89° C | 50% | 1009.9 hPa | 0 mm | 2.24 m/s, 299° | 0 W/m² | - |
| 1778045852 | 3.89° C | 50% | 1009.9 hPa | 0 mm | 0.89 m/s, 11° | 0 W/m² | - |
| 1778045551 | 3.89° C | 50% | 1009.9 hPa | 0 mm | 1.34 m/s, 327° | 0 W/m² | - |
| 1778045248 | 3.89° C | 50% | 1009.8 hPa | 0 mm | 1.79 m/s, 320° | 0 W/m² | - |
| 1778044947 | 3.89° C | 50% | 1009.8 hPa | 0 mm | 1.34 m/s, 353° | 0 W/m² | - |
| 1778044644 | 3.89° C | 49% | 1009.9 hPa | 0 mm | 1.34 m/s, 298° | 0 W/m² | - |
| 1778044340 | 3.89° C | 49% | 1009.8 hPa | 0 mm | 0.89 m/s, 336° | 0 W/m² | - |
| 1778044039 | 4.44° C | 49% | 1009.7 hPa | 0 mm | 0.89 m/s, 285° | 0 W/m² | - |
| 1778043735 | 4.44° C | 49% | 1009.8 hPa | 0 mm | 0.45 m/s, 347° | 0 W/m² | - |
| 1778043432 | 4.44° C | 48% | 1009.7 hPa | 0 mm | 1.79 m/s, 297° | 0 W/m² | - |
| 1778043128 | 4.44° C | 48% | 1009.7 hPa | 0 mm | 0.89 m/s, 9° | 0 W/m² | - |
| 1778042826 | 4.44° C | 48% | 1009.8 hPa | 0 mm | 1.34 m/s, 356° | 0 W/m² | - |
| 1778042523 | 4.44° C | 48% | 1009.8 hPa | 0 mm | 1.34 m/s, 292° | 0 W/m² | - |
| 1778042220 | 4.44° C | 48% | 1009.6 hPa | 0 mm | 1.34 m/s, 22° | 0 W/m² | - |
| 1778041918 | 4.44° C | 48% | 1009.5 hPa | 0 mm | 2.68 m/s, 325° | 0 W/m² | - |
* Rain latest hour (hover to see other rain measurements)
** Current wind speed in m/s (hover to see current wind gust speed)